389P/Siding Spring (2006)

Japanese version
Home page
Updated on October 22, 2019

---------------------------------------------------------------------

* Profile

Designation 389P/2006 R1
Discovery Date September 1, 2006
Magnitude 17.7 mag
Discoverer Siding Spring Survey

* Orbital Elements

Epoch 2006 Sept. 22.0 TT = JDT 2454000.5                                        
T 2006 Sept. 3.67388 TT                                 Williams                
q   1.6711048            (2000.0)            P               Q                  
n   0.07400939     Peri.  249.30973     +0.82487623     -0.52348001             
a   5.6183849      Node   218.63313     -0.30049674     -0.72579389             
e   0.7025649      Incl.  160.01117     -0.47883287     -0.44630920             
P  13.3                                                                         
From 65 observations 2006 Sept. 1-2019 Sept. 26, mean residual 0".4.            

* Magnitudes Graph

        m1 = 16.0 + 5 log d + 10.0 log r

---------------------------------------------------------------------

The orbital elements are published on M.P.E.C. 2019-S105.
The magnitudes graphs are made with Comet for Windows.

---------------------------------------------------------------------

Copyright(C) Seiichi Yoshida (comet@aerith.net). All rights reserved.